Flag for United Kingdom Weather past 2 weeks in Swindon, England, United Kingdom

Now
63 °F

Sunny.


Feels Like: 63 °F
Forecast: 53 / 65 °F
Wind: 8 mph from Southwest

Location: Brize Norton

Current Time: Aug 3, 2015 at 11:36:30 PM

Latest Report: Aug 3, 2015 at 9:50 PM


Visibility: 10 mi

Pressure: 29.83 "Hg

Humidity: 64%

Dew point: 50 °F

Location of SwindonLocation

Historic Weather in Swindon — Graph

°F

Swindon temperature yesterday

Maximum temperature yesterday: 77 °F (at 5:50 PM)
Minimum temperature yesterday: 50 °F (at 2:50 AM)
Average temperature yesterday: 64 °F

Past Weeks' High & Low Weather Summary

 TemperatureHumidityPressure
High77 °F (Aug 2, 5:50 PM)100% (Jul 24, 8:50 PM)30.15 "Hg (Jul 24, 8:50 PM)
Low43 °F (Jul 31, 3:50 AM)32% (Aug 2, 5:50 PM)29.42 "Hg (Jul 26, 5:50 PM)
Average59 °F71%29.87 "Hg
* Reported Jul 19 9:50 PM — Aug 3 9:50 PM, Swindon, Weather by CustomWeather, © 2015

Note: Actual official high and low records may vary slightly from our data, if they occured in-between our weather recording intervals... More about our weather records

Advertising

Swindon weather history for previous 24 hours

 ConditionsComfort  
Time TempWeatherWind HumidityBarometerVisibility
9:50 PM
Mon, Aug 3
63 °FSunny.8 mph64%29.83 "Hg10 mi
8:50 PM64 °FPartly sunny.10 mph60%29.83 "HgN/A
7:50 PM66 °FBroken clouds.10 mph56%29.80 "HgN/A
6:50 PM68 °FPartly sunny.10 mph53%29.80 "HgN/A
5:50 PM70 °FScattered clouds.13 mph50%29.80 "HgN/A
4:50 PM72 °FPartly sunny.12 mph50%29.80 "HgN/A
3:50 PM70 °FBroken clouds.13 mph53%29.80 "HgN/A
2:50 PM70 °FScattered clouds.15 mph57%29.83 "HgN/A
1:50 PM70 °FBroken clouds.16 mph57%29.83 "HgN/A
12:50 PM70 °FScattered clouds.13 mph57%29.83 "HgN/A
11:50 AM72 °FBroken clouds.14 mph53%29.80 "HgN/A
10:50 AM70 °FScattered clouds.9 mph60%29.83 "HgN/A
9:50 AM68 °FBroken clouds.12 mph73%29.83 "HgN/A
8:50 AM66 °FLight rain. Broken clouds.12 mph83%29.80 "HgN/A
7:50 AM66 °FScattered clouds.14 mph78%29.80 "HgN/A
6:50 AM63 °FPartly sunny.7 mph88%29.77 "HgN/A
5:50 AM59 °FPassing clouds.5 mph88%29.77 "HgN/A
4:50 AM59 °FPassing clouds.5 mph72%29.77 "HgN/A
3:50 AM59 °FClear.2 mph72%29.77 "Hg10 mi
2:50 AM61 °FClear.3 mph68%29.77 "Hg10 mi
1:50 AM63 °FClear.5 mph64%29.80 "Hg10 mi
12:50 AM64 °FClear.1 mph56%29.83 "Hg10 mi
11:50 PM
Sun, Aug 2
66 °FClear.7 mph52%29.83 "Hg10 mi
Weather by CustomWeather, © 2015

See weather overviewHow to use our weather pages